Flag for U.S.A. Weather past 2 weeks in Cambridge, Massachusetts, U.S.A.

Now
23 °F

Passing clouds.


Feels Like: 12 °F
Forecast: 3 / 28 °F
Wind: 10 mph from Northwest

Location: Logan International Airport

Current Time: Jan 28, 2015 at 8:01:55 PM

Latest Report: Jan 28, 2015 at 6:54 PM


Visibility: 10 mi

Pressure: 30.12 "Hg

Humidity: 53%

Dew point: 8 °F

Location of CambridgeLocation

Historic Weather in Cambridge — Graph

°F

Cambridge temperature yesterday

Maximum temperature yesterday: 19 °F (at 5:54 PM)
Minimum temperature yesterday: 14 °F (at 7:54 PM)
Average temperature yesterday: 16 °F

Past Weeks' High & Low Weather Summary

 TemperatureHumidityPressure
High50 °F (Jan 18, 2:54 PM)100% (Jan 24, 9:54 AM)30.66 "Hg (Jan 24, 9:54 AM)
Low9 °F (Jan 17, 7:54 AM)25% (Jan 17, 1:54 PM)29.16 "Hg (Jan 24, 4:54 PM)
Average27 °F65%29.95 "Hg
* Reported Jan 13 6:54 PM — Jan 28 6:54 PM, Cambridge, Weather by CustomWeather, © 2014

Note: Actual official high and low records may vary slightly from our data, if they occured in-between our weather recording intervals... More about our weather records

Advertising

Cambridge weather history for previous 24 hours

 ConditionsComfort  
Time TempWeatherWind HumidityBarometerVisibility
6:54 PM
Jan 28
23 °FPassing clouds.10 mph53%30.12 "Hg10 mi
5:54 PM23 °FPassing clouds.8 mph55%30.09 "Hg10 mi
4:54 PM23 °FPassing clouds.13 mph55%30.05 "Hg10 mi
3:54 PM24 °FScattered clouds.12 mph52%30.02 "Hg10 mi
2:54 PM24 °FPartly sunny.13 mph52%29.99 "Hg10 mi
1:54 PM21 °FPartly sunny.13 mph55%29.98 "Hg10 mi
12:54 PM19 °FPartly sunny.13 mph57%29.97 "Hg10 mi
11:54 AM19 °FPartly sunny.13 mph54%29.96 "Hg10 mi
10:54 AM18 °FPartly sunny.15 mph57%29.96 "Hg10 mi
9:54 AM16 °FPartly sunny.17 mph62%29.95 "Hg10 mi
8:54 AM15 °FOvercast.15 mph61%29.93 "Hg10 mi
7:54 AM14 °FOvercast.10 mph64%29.89 "Hg10 mi
6:54 AM14 °FOvercast.14 mph64%29.85 "Hg10 mi
5:54 AM13 °FPassing clouds.14 mph67%29.82 "Hg10 mi
4:54 AM13 °FLight snow. Overcast.14 mph74%29.78 "Hg4 mi
4:01 AM14 °FLight snow. Mostly cloudy.14 mph73%29.76 "Hg2 mi
3:54 AM14 °FLight snow. Mostly cloudy.16 mph71%29.75 "Hg8 mi
2:54 AM14 °FLight snow. Overcast.14 mph73%29.73 "Hg5 mi
1:54 AM14 °FLight snow. Overcast.15 mph77%29.70 "Hg1 mi
12:54 AM14 °FLight snow. Overcast.14 mph77%29.67 "Hg1 mi
11:54 PM
Jan 27
14 °FLight snow. Overcast.16 mph73%29.66 "Hg4 mi
10:54 PM14 °FLight snow. Overcast.15 mph77%29.65 "Hg2 mi
9:54 PM14 °FLight snow. Overcast.22 mph77%29.62 "Hg2 mi
8:54 PM14 °FLight snow. Overcast.22 mph80%29.61 "Hg1 mi
Weather by CustomWeather, © 2014

See weather overviewHow to use our weather pages